This is the latest recevied weather packets stored in our database for station/object WA9SDJ-13. If no packets are shown the sender has not sent any weather packets the latest 10 day(s).
| Time | Temp. | Humidity | Pressure | Rain* | Wind** | Luminosity | Snow |
|---|---|---|---|---|---|---|---|
| 1777938482 | 23.33° C | 48% | 1001.6 hPa | 0 mm | - | 26 W/m² | - |
| 1777938422 | 23.33° C | 49% | 1001.7 hPa | 0 mm | - | 26 W/m² | - |
| 1777938362 | 23.33° C | 49% | 1001.7 hPa | 0 mm | - | 26 W/m² | - |
| 1777938303 | 23.33° C | 49% | 1001.6 hPa | 0 mm | - | 26 W/m² | - |
| 1777938243 | 23.33° C | 48% | 1001.9 hPa | 0 mm | - | 26 W/m² | - |
| 1777938182 | 23.33° C | 48% | 1001.9 hPa | 0 mm | - | 37 W/m² | - |
| 1777938122 | 23.33° C | 49% | 1001.9 hPa | 0 mm | - | 40 W/m² | - |
| 1777938062 | 23.33° C | 51% | 1002 hPa | 0 mm | - | 40 W/m² | - |
| 1777938002 | 23.33° C | 49% | 1002 hPa | 0 mm | - | 37 W/m² | - |
| 1777937943 | 23.33° C | 48% | 1002 hPa | 0 mm | - | 37 W/m² | - |
| 1777937882 | 23.33° C | 49% | 1002.1 hPa | 0 mm | - | 37 W/m² | - |
| 1777937822 | 23.33° C | 48% | 1002.1 hPa | 0 mm | - | 37 W/m² | - |
| 1777937762 | 23.33° C | 48% | 1002.1 hPa | 0 mm | - | 39 W/m² | - |
| 1777937703 | 23.33° C | 49% | 1002.2 hPa | 0 mm | - | 41 W/m² | - |
| 1777937644 | 23.33° C | 49% | 1002.1 hPa | 0 mm | - | 39 W/m² | - |
| 1777937582 | 23.33° C | 48% | 1002.3 hPa | 0 mm | - | 39 W/m² | - |
| 1777937522 | 23.33° C | 49% | 1002.2 hPa | 0 mm | - | 40 W/m² | - |
| 1777937462 | 23.33° C | 49% | 1002.3 hPa | 0 mm | - | 44 W/m² | - |
| 1777937402 | 23.33° C | 50% | 1002.3 hPa | 0 mm | - | 44 W/m² | - |
| 1777937342 | 23.33° C | 50% | 1002.3 hPa | 0 mm | - | 41 W/m² | - |
| 1777937282 | 23.33° C | 49% | 1002.3 hPa | 0 mm | - | 40 W/m² | - |
| 1777937223 | 23.33° C | 49% | 1002.2 hPa | 0 mm | - | 40 W/m² | - |
| 1777937162 | 23.33° C | 49% | 1002.3 hPa | 0 mm | - | 40 W/m² | - |
| 1777937102 | 23.33° C | 49% | 1002.4 hPa | 0 mm | - | 41 W/m² | - |
| 1777937042 | 23.33° C | 50% | 1002.3 hPa | 0 mm | - | 42 W/m² | - |
* Rain latest hour (hover to see other rain measurements)
** Current wind speed in m/s (hover to see current wind gust speed)